Location: Wald
(31.7579°N, 86.6655°W)
Time: 00:12:55
(UTC+00:00)

Cosmos 2322 - Pass Details

Date: 14 July 2020
Orbit: 841 x 854 km, 71.0° (Epoch: 12 August)

Event Time Altitude Azimuth Distance (km) Brightness Sun altitude
Rises 01:15:01 0° 207° (SSW) 3,406 6.8 -4.8°
Reaches altitude 10° 01:17:29 10° 210° (SSW) 2,474 6.2 -5.3°
Maximum altitude 01:23:07 65° 291° (WNW) 937 4.3 -6.3°
Drops below altitude 10° 01:28:47 10° 13° (NNE) 2,486 6.4 -7.4°
Sets 01:31:17 0° 17° (NNE) 3,423 7.1 -7.8°
